When you browse on this site, cookies collect data to enhance your experience and personalize the content and advertising you see.
Visit our Privacy Policy to learn more. By continuing to use the site, you agree to this use of cookies and data.
  • In Hungary
  • List of Countries
  • For 7 days
  • Water Temperature
  • Satellite Maps
  • Weather Map
  • News
  • Weather Widgets
  • user-avatar
    Login

    Hourly Weather Muncie

    Today, 19 July, Friday

    Time Temperature Precipitation Wind Pressure Humidity
    00:00 +26°C° 0 mm 3 mps 733 mmHg 95%
    01:00 +26°C° 0 mm 4 mps 733 mmHg 96%
    02:00 +25°C° 0 mm 4 mps 733 mmHg 96%
    03:00 +25°C° 0 mm 5 mps 733 mmHg 96%
    04:00 +26°C° 0 mm 5 mps 733 mmHg 96%
    05:00 +26°C° 0 mm 4 mps 733 mmHg 96%
    06:00 +27°C° 0 mm 4 mps 734 mmHg 97%
    07:00 +28°C° 0 mm 4 mps 734 mmHg 94%
    08:00 +29°C° 0 mm 5 mps 734 mmHg 91%
    09:00 +29°C° 0 mm 5 mps 734 mmHg 89%
    10:00 +30°C° 0 mm 5 mps 734 mmHg 86%
    11:00 +32°C° 0 mm 6 mps 734 mmHg 83%
    12:00 +33°C° 0 mm 6 mps 734 mmHg 80%
    13:00 +33°C° 0 mm 6 mps 734 mmHg 78%
    14:00 +34°C° 0 mm 6 mps 734 mmHg 77%
    15:00 +34°C° 0 mm 6 mps 733 mmHg 75%
    16:00 +33°C° 0 mm 5 mps 733 mmHg 78%
    17:00 +32°C° 0 mm 5 mps 733 mmHg 82%
    18:00 +30°C° 0 mm 4 mps 733 mmHg 85%
    19:00 +29°C° 0 mm 4 mps 734 mmHg 87%
    20:00 +28°C° 0 mm 4 mps 734 mmHg 89%
    21:00 +27°C° 0 mm 4 mps 734 mmHg 92%
    22:00 +27°C° 0 mm 4 mps 734 mmHg 93%
    23:00 +26°C° 0 mm 4 mps 734 mmHg 94%

    Tomorrow, 20 July, Saturday

    Time Temperature Precipitation Wind Pressure Humidity
    00:00 +26°C° 0 mm 3 mps 734 mmHg 96%
    01:00 +26°C° 0 mm 3 mps 734 mmHg 96%
    02:00 +25°C° 0 mm 3 mps 734 mmHg 97%
    03:00 +25°C° 0 mm 3 mps 734 mmHg 97%
    04:00 +26°C° 0 mm 4 mps 734 mmHg 96%
    05:00 +26°C° 0 mm 4 mps 734 mmHg 96%
    06:00 +26°C° 0 mm 4 mps 734 mmHg 95%
    07:00 +28°C° 0 mm 4 mps 734 mmHg 92%
    08:00 +29°C° 0 mm 4 mps 734 mmHg 89%
    09:00 +30°C° 0 mm 4 mps 734 mmHg 86%
    10:00 +32°C° 0 mm 4 mps 735 mmHg 82%
    11:00 +33°C° 0 mm 4 mps 735 mmHg 78%
    12:00 +34°C° 0 mm 4 mps 735 mmHg 74%
    13:00 +34°C° 0 mm 4 mps 735 mmHg 73%
    14:00 +35°C° 0 mm 4 mps 734 mmHg 73%
    15:00 +35°C° 0 mm 4 mps 734 mmHg 73%
    16:00 +34°C° 0.1 mm 4 mps 734 mmHg 77%
    17:00 +33°C° 0.1 mm 3 mps 734 mmHg 81%
    18:00 +31°C° 0.1 mm 2 mps 734 mmHg 85%
    19:00 +30°C° 0 mm 2 mps 734 mmHg 88%
    20:00 +29°C° 0 mm 2 mps 734 mmHg 90%
    21:00 +28°C° 0 mm 2 mps 734 mmHg 93%
    22:00 +27°C° 0 mm 2 mps 734 mmHg 93%
    23:00 +27°C° 0 mm 2 mps 734 mmHg 94%

    Day after tomorrow, 21 July, Sunday

    Time Temperature Precipitation Wind Pressure Humidity
    00:00 +26°C° 0 mm 2 mps 734 mmHg 95%
    01:00 +26°C° 0 mm 2 mps 734 mmHg 95%
    02:00 +26°C° 0 mm 2 mps 734 mmHg 96%
    03:00 +26°C° 0 mm 2 mps 733 mmHg 96%
    04:00 +26°C° 0 mm 2 mps 734 mmHg 96%
    05:00 +27°C° 0 mm 2 mps 734 mmHg 95%
    06:00 +27°C° 0 mm 2 mps 734 mmHg 95%
    07:00 +28°C° 0 mm 2 mps 734 mmHg 90%
    08:00 +29°C° 0 mm 2 mps 734 mmHg 85%
    09:00 +31°C° 0 mm 3 mps 734 mmHg 80%
    10:00 +31°C° 0 mm 3 mps 734 mmHg 76%
    11:00 +33°C° 0 mm 3 mps 734 mmHg 73%
    12:00 +34°C° 0 mm 3 mps 734 mmHg 69%
    13:00 +34°C° 0.6 mm 2 mps 733 mmHg 70%
    14:00 +34°C° 0.6 mm 2 mps 733 mmHg 72%
    15:00 +32°C° 0.6 mm 2 mps 733 mmHg 73%
    16:00 +31°C° 1.6 mm 2 mps 733 mmHg 77%
    17:00 +30°C° 1.6 mm 2 mps 732 mmHg 81%
    18:00 +29°C° 1.6 mm 2 mps 732 mmHg 85%
    19:00 +28°C° 1.2 mm 2 mps 732 mmHg 85%
    20:00 +27°C° 1.2 mm 2 mps 732 mmHg 85%
    21:00 +27°C° 1.2 mm 2 mps 733 mmHg 85%
    22:00 +26°C° 0.3 mm 1 mps 732 mmHg 86%
    23:00 +26°C° 0.3 mm 1 mps 731 mmHg 86%

    22 July, Monday

    Time Temperature Precipitation Wind Pressure Humidity
    00:00 +25°C° 0.3 mm 1 mps 731 mmHg 86%
    01:00 +25°C° 0 mm 1 mps 731 mmHg 88%
    02:00 +25°C° 0 mm 1 mps 731 mmHg 91%
    03:00 +24°C° 0 mm 2 mps 731 mmHg 93%
    04:00 +24°C° 0.2 mm 2 mps 731 mmHg 94%
    05:00 +24°C° 0.2 mm 2 mps 731 mmHg 94%
    06:00 +25°C° 0.2 mm 2 mps 731 mmHg 95%
    07:00 +25°C° 0.3 mm 2 mps 731 mmHg 92%
    08:00 +26°C° 0.3 mm 2 mps 731 mmHg 90%
    09:00 +27°C° 0.3 mm 3 mps 731 mmHg 88%
    10:00 +26°C° 1.1 mm 4 mps 731 mmHg 89%
    11:00 +25°C° 1.1 mm 5 mps 731 mmHg 91%
    12:00 +23°C° 1.1 mm 7 mps 731 mmHg 93%
    13:00 +21°C° 5.4 mm 7 mps 731 mmHg 93%
    14:00 +17°C° 5.4 mm 8 mps 731 mmHg 94%
    15:00 +15°C° 5.4 mm 9 mps 731 mmHg 94%
    16:00 +15°C° 0.1 mm 8 mps 732 mmHg 93%
    17:00 +15°C° 0.1 mm 7 mps 732 mmHg 92%
    18:00 +16°C° 0.1 mm 7 mps 733 mmHg 91%
    19:00 +15°C° 0 mm 5 mps 734 mmHg 93%
    20:00 +14°C° 0 mm 4 mps 734 mmHg 94%
    21:00 +15°C° 0 mm 2 mps 735 mmHg 95%
    22:00 +15°C° 0 mm 2 mps 735 mmHg 95%
    23:00 +15°C° 0 mm 2 mps 735 mmHg 95%

    23 July, Tuesday

    Time Temperature Precipitation Wind Pressure Humidity
    00:00 +14°C° 0 mm 2 mps 735 mmHg 96%
    01:00 +14°C° 0 mm 2 mps 735 mmHg 94%
    02:00 +14°C° 0 mm 2 mps 735 mmHg 93%
    03:00 +13°C° 0 mm 2 mps 735 mmHg 92%
    04:00 +13°C° 0 mm 2 mps 736 mmHg 90%
    05:00 +14°C° 0 mm 2 mps 736 mmHg 87%
    06:00 +14°C° 0 mm 2 mps 736 mmHg 85%
    07:00 +16°C° 0 mm 3 mps 737 mmHg 81%
    08:00 +18°C° 0 mm 4 mps 737 mmHg 76%
    09:00 +20°C° 0 mm 4 mps 737 mmHg 72%
    10:00 +21°C° 0 mm 4 mps 737 mmHg 70%
    11:00 +22°C° 0 mm 4 mps 737 mmHg 68%
    12:00 +23°C° 0 mm 4 mps 737 mmHg 66%
    13:00 +23°C° 0 mm 4 mps 737 mmHg 67%
    14:00 +23°C° 0 mm 4 mps 737 mmHg 68%
    15:00 +23°C° 0 mm 4 mps 737 mmHg 68%
    16:00 +22°C° 0 mm 4 mps 737 mmHg 73%
    17:00 +21°C° 0 mm 3 mps 737 mmHg 78%
    18:00 +20°C° 0 mm 2 mps 737 mmHg 83%
    19:00 +19°C° 0 mm 2 mps 737 mmHg 85%
    20:00 +18°C° 0 mm 2 mps 737 mmHg 88%
    21:00 +16°C° 0 mm 1 mps 737 mmHg 90%
    22:00 +16°C° 0 mm 1 mps 737 mmHg 90%
    23:00 +15°C° 0 mm 1 mps 737 mmHg 90%

    24 July, Wednesday

    Time Temperature Precipitation Wind Pressure Humidity
    00:00 +15°C° 0 mm 1 mps 737 mmHg 90%
    01:00 +13°C° 0 mm 0 mps 737 mmHg 89%
    02:00 +13°C° 0 mm 0 mps 737 mmHg 89%
    03:00 +13°C° 0 mm 0 mps 737 mmHg 89%
    04:00 +14°C° 0 mm 0 mps 738 mmHg 88%
    05:00 +16°C° 0 mm 1 mps 738 mmHg 87%
    06:00 +18°C° 0 mm 1 mps 738 mmHg 86%
    07:00 +19°C° 0 mm 1 mps 739 mmHg 81%
    08:00 +21°C° 0 mm 1 mps 739 mmHg 76%
    09:00 +22°C° 0 mm 1 mps 739 mmHg 71%
    10:00 +23°C° 0 mm 1 mps 739 mmHg 67%
    11:00 +24°C° 0 mm 1 mps 739 mmHg 63%
    12:00 +25°C° 0 mm 1 mps 739 mmHg 60%
    13:00 +25°C° 0 mm 1 mps 739 mmHg 60%
    14:00 +25°C° 0 mm 1 mps 738 mmHg 60%
    15:00 +26°C° 0 mm 1 mps 738 mmHg 60%
    16:00 +25°C° 0 mm 1 mps 738 mmHg 65%
    17:00 +24°C° 0 mm 1 mps 738 mmHg 71%
    18:00 +23°C° 0 mm 1 mps 738 mmHg 76%
    19:00 +22°C° 0 mm 1 mps 738 mmHg 80%
    20:00 +20°C° 0 mm 1 mps 738 mmHg 83%
    21:00 +17°C° 0 mm 0 mps 739 mmHg 87%
    22:00 +16°C° 0 mm 0 mps 739 mmHg 88%
    23:00 +16°C° 0 mm 0 mps 739 mmHg 88%
    Show more